Weather in Myakit

Russia / Magadan District     61°24′29″N   152°05′19″E
temp.,
°C
wind,
m/s
gust,
m/s
humid.,
%
clouds,
%
prec.,
mm/h
press.,
hPa
HPBL,
m
11 may, tue
tue1123:00−7ssw119981 0.1 101810
02:00−5w119892 0.1 101810
05:00−4w119798 0.1 101813
08:00−3nw1190100 0.1 1018162
11:00−2n228778 0.1 1018387
14:00−1n238686 0.1 1017505
17:00−1nne228396 0.2 1017474
20:00−2ne119190 0.1 101812
12 may, wed
wed1223:00−5nne229655 0.2 101916
02:00−7n119867 0.0 102011
05:00−8nnw119981 0.1 102014
08:00−5nnw229587 0.0 1019175
11:00−3n238494 0.0 1018524
14:00−1n337693 0.0 1017743
17:00−1nne236990 0.1 1016743
20:00−2ene117835 0.0 101611
13 may, thu
thu1323:00−4se118799 0.0 101610
02:00−5s2288100 0.0 101519
05:00−5s338568 0.0 101427
08:00−1s237428 0.0 1011135
11:00+3ssw4766100 0.0 1008744
14:00+6sw101154100 0.0 10051245
17:00+6sw8952100 0.0 10041422
20:00+4sw71262100 0.0 1004283
14 may, fri
fri1423:00+1sw61075100 0.1 1005402
02:00−1ssw479699 1.2 1006363
05:00−1wsw229889 3.1 1007155
08:00−1n5796100 1.6 1009492
11:00−1nnw4588100 2.4 1011694
14:000nnw457299 0.3 1012959
17:000nnw466194 0.4 10131123
20:00−1n356813 0.0 1014756
15 may, sat
sat1523:00−3n33875 0.0 101677
02:00−3n11915 0.0 101716
05:00−3ssw00915 0.0 101810
08:00−2s11765 0.0 1018325
11:00+1s11595 0.0 1017664
14:00+4s33495 0.0 1016987
17:00+5s34475 0.0 10151145
20:00+4se32601 0.0 101526